Weather in Yershiposi

Russia / Chuvash Republic     55°24′25″N   47°00′27″E
temp.,
°C
wind,
m/s
gust,
m/s
humid.,
%
clouds,
%
prec.,
mm/h
press.,
hPa
HPBL,
m
28 june, tue
tue2800:00+14nne37921 0.0 1015137
03:00+10ne38960 0.0 1017193
06:00+11ne46905 0.0 1018319
09:00+14nne57640 0.0 10191068
12:00+16n575222 0.0 10192032
15:00+17n675152 0.0 10192080
18:00+15n47655 0.0 1019545
21:00+10nnw35759 0.0 102176
29 june, wed
wed2900:00+8n33765 0.0 102125
03:00+7nnw22819 0.0 102222
06:00+10nnw357396 0.0 1022182
09:00+15nnw56605 0.0 1021862
12:00+17nnw565186 0.0 10201659
15:00+19nnw564838 0.0 10191851
18:00+17nw36651 0.0 1018272
21:00+12wnw33714 0.0 101720
30 june, thu
thu3000:00+11wnw3472100 0.0 101746
03:00+9nw347893 0.0 101659
06:00+12nw41076100 0.0 1015287
09:00+16nw696190 0.0 1014712
12:00+19nnw794813 0.0 10131802
15:00+18n51059100 0.0 10132074
18:00+16nne5106296 0.1 1014764
21:00+11nne34675 0.1 101558
1 july, fri
fri100:00+8nne337780 0.0 101745
03:00+6n34845 0.0 101859
06:00+9n49765 0.0 1018372
09:00+14nne69605 0.0 10181165
12:00+17nne575396 0.0 10181907
15:00+18n365192 0.0 10181840
18:00+17n237017 0.0 1017155
21:00+12nw22815 0.0 101811
2 july, sat
sat200:00+10w33765 0.0 101828
03:00+9w34781 0.0 101740
06:00+13wnw35755 0.0 1017152
09:00+19wnw456096 0.0 1016491
12:00+22nw4558100 0.0 1015854
15:00+23w4559100 0.0 10141025
18:00+20nnw71183100 2.6 1012454
21:00+15sw3596100 9.3 101290